Regional Weather Roundup
Issued by NWS Newport/Morehead, NC

Current Version | Previous Version | Text Only | Print | Product List | Glossary On
Versions: 1 2 3 4 5 6 7 8 9 10 11 12 13 14 15 16 17 18 19 20 21 22 23 24 25 26 27 28 29 30 31 32 33 34 35 36 37 38 39 40 41 42 43 44 45 46 47 48 49 50
000 ASUS42 KMHX 230825 RWRMHX WEATHER ROUNDUP FOR EASTERN NORTH CAROLINA NATIONAL WEATHER SERVICE NEWPORT/MOREHEAD CITY NC 400 AM EDT WED AUG 23 2017 NOTE: "FAIR" INDICATES FEW OR NO CLOUDS BELOW 12,000 FEET WITH NO SIGNIFICANT WEATHER AND/OR OBSTRUCTIONS TO VISIBILITY NCZ015>017-031-032-045>047-102-103-230900- NORTH COAST CITY SKY/WX TMP DP RH WIND PRES REMARKS EDENTON MOCLDY 80 75 86 SW9 29.90F ELIZABETH CITY CLEAR 78 77 96 SW10 29.88F KITTY HAWK SUNNY 79 73 82 SW3G16 29.88F MANTEO CLEAR 79 74 86 W13 29.90F $$ NCZ045>047-081-094-103-104-230900- CENTRAL COAST CITY SKY/WX TMP DP RH WIND PRES REMARKS FRISCO CLEAR 81 78 91 SW8 29.92F $$ NCZ095-097-098-100-101-230900- SOUTHERN COAST CITY SKY/WX TMP DP RH WIND PRES REMARKS BEAUFORT MOCLDY 82 77 84 SW14G22 29.92F CEDAR ISLAND NOT AVBL JACKSONVILLE CLEAR 77 75 93 S5 29.92F PINEY ISLAND MOSUNNY N/A N/A N/A SW5 29.92F WILMINGTON CLEAR 79 75 87 SW7 29.92F $$ NCZ011>013-027>030-043-044-078>080-089-090>093-098-230900- COASTAL PLAIN CITY SKY/WX TMP DP RH WIND PRES REMARKS AHOSKIE N/A 74 73 96 S3 29.88F CLINTON CLEAR 75 75 100 CALM 29.92F ELIZABETHTOWN NOT AVBL GOLDSBORO CLEAR 77 72 86 W5 29.91F GREENVILLE CLEAR 77 73 88 SW6 29.92F HAVELOCK CLEAR 76 74 93 SW6 29.93F KENANSVILLE CLEAR 75 73 94 CALM 29.91F KINSTON CLEAR 76 74 91 SW6 29.91F NEW BERN CLEAR 76 75 97 S5 29.93F RICHLANDS CLEAR 75 74 96 S7 29.93F ROCKY MOUNT CLEAR 75 74 96 S6 29.89F WASHINGTON CLEAR 76 74 92 SW6 29.90F WHITEVILLE CLEAR 76 74 93 CALM 29.92F $$ AMZ130-135-150-152-154-156-158-170-250-252-270-ANZ085-086-088-633-658-670-230900- MARINE OBSERVATIONS STATION/POSITION TIME TEMP WIND PRES WAVE SWELL AIR SEA DIR/SP/G HT/PER HT/PER (UTC) (F) (DEG/KT/KT) (MB) (FT/S) (FT/S) CHESAPEAKE LIGHT NOT AVBL 64 E VA BEACH 0750 80 79 220/ 16/ 17 1011.9 5/10 3/10 DUCK 0800 80 68 230/ 18/ 22 1011.6 2 E DUCK 0800 73 N/A 3/10 2/11 OREGON INLET 0800 81 84 230/ 16/ 18 1012.4 13E OREGON INLT 0748 78 N/A 4/ 9 3/ 9 HATTERAS CG 0800 80 84 240/ 7/ 10 1013.1 DIAMOND BUOY 0750 83 85 250/ 16/ 19 1013.0 4/ 8 3/ 8 CAPE LOOKOUT 0800 82 230/ 11/ 15 1013.0 BEAUFORT LAB 0800 82 81 230/ 5/ 10 1012.7 30 SE NEW RVR IN 0708 81 84 230/ 16/ 19 1014.1 30 SE NEW RVR IN 0813 84 N/A 5/10 2/11 27 SE WRIGHTSVLE 0808 83 83 220/ 16/ 21 1013.4 5 SE WRIGHTSVLE 0708 83 84 230/ 14/ 19 1013.9 225 S CAPE HAT 0750 82 84 160/ 6/ 6 1015.0 3/ 8 3/ 8 41 SE CHARLESTON 0810 83 84 220/ 14/ 16 1013.8 $$

USA.gov is the U.S. government's official web portal to all federal, state and local government web resources and services.